www.pogodaiklimat.ru

Погода и климат >> Архив погоды >> Россия >> Кемеровская область >> Тяжин


ПОГОДА в Тяжине

  • Прогноз погоды в Тяжине
  • Монитор погоды в Тяжине

АРХИВ ПОГОДЫ в Тяжине

Время (UTC), дата Ветер
(напр.,м/с)
 
Видим.   Явления Облачность Т
(С)
Тd
(С)
f
(%)
Тe
(С)
Тes
(С)
Комфортность P
(гПа)
Po
(гПа)
Тmin
(С)
Tmax
(С)
R
(мм)
R24
(мм)
S
(см)
00 13.06 Ю 3 20 км 4/3 600 м
[Cu hum Ac cast Ci fib]
+18.4 +10.6 60 +19 +20 1002.9 977.3 +13.9
03 13.06 Ю 5
{10}
20 км 6/3 600 м
[Cu hum Ac trans Cc]
+23.3 +10.4 44 +25 +27 комфорт 1002.6 977.3
06 13.06 ЮЗ 7-12
{13}
20 км 8/3 600 м
[Cu med, cong Ac trans Ci fib]
+26.9 +6.3 27 +26 +28 жарко 1002.3 977.3
09 13.06 ЮЗ 4
{15}
20 км 8/4 600 м
[Sc diur, vesp Ac trans Ci fib]
+25.3 +8.3 34 +26 +28 жарко 1001.1 976.0
12 13.06 ЮЗ 4
{11}
20 км 9/4 600 м
[Cb cap Ac trans Ci fib]
+26.0 +8.0 32 +26 +27 жарко 999.1 974.2 +27.6
15 13.06 З 4-11
{13}
20 км 10/6 300 м
[Cb cap Ac trans Ci fib]
+20.1 +10.8 55 +22 +22 комфорт 1000.7 975.3
18 13.06 Ю 2
{11}
10 км слаб. ливневой дождь 10/8 500 м
[Cb cap Ci fib]
+16.1 +12.3 78 +16 +16 1000.5 974.8
21 13.06 Ю 3 20 км {ливн. осадки} 10/5 600 м
[Cb cap Ac trans Ci fib]
+15.6 +13.1 85 +15 +15 999.1 973.3
00 14.06 З 2 20 км {ливн. осадки} 10/5 600 м
[Cb cap Ac trans Ci fib]
+17.8 +13.8 77 +18 +19 999.2 973.6 +15.4 0.6
03 14.06 С 1 20 км {ливн. осадки} 10/10 500 м
[Cb cap]
+14.0 +11.3 84 +14 +14 1002.3 976.3 +12.7
06 14.06 СЗ 2 20 км {ливн. осадки} 10/8 720 м
[Sc diur, vesp Ac trans Ci sp]
+16.1 +9.4 64 +16 +18 1003.3 977.5
09 14.06 СЗ 1 20 км 8/3 600 м
[Sc diur, vesp Ac cast Cc]
+17.1 +9.3 60 +18 +22 1004.6 978.7
12 14.06 ЮЗ 2 20 км 3/1 600 м
[Sc diur, vesp Cc]
+18.6 +8.8 53 +20 +22 1004.1 978.4 +18.9 2
15 14.06 ЮВ 2 20 км 3/1 600 м
[Sc diur, vesp Ac trans Ci fib]
+15.8 +6.5 54 +16 +16 1006.0 980.0
18 14.06 штиль 0 10 км 6/0
[Ac trans Ci fib]
+12.3 +7.8 74 +12 +12 1005.0 978.7
21 14.06 штиль 0 20 км 10/4 600 м
[Sc diur, vesp Ac trans Cs]
+11.8 +9.0 83 +11 +11 1005.1 978.7
00 15.06 З 1 20 км 10/4 600 м
[Sc diur, vesp Ac trans Cc]
+14.2 +12.4 89 +15 +15 1003.6 977.6 +10.9
03 15.06 СЗ 2 20 км 10/4 600 м
[Sc diur, vesp Ac trans Cs]
+17.5 +12.4 72 +18 +18 1004.5 978.7
06 15.06 СЗ 3 10 км слаб. ливневой дождь 10/6 300 м
[Cu Sc Ac inh]
+13.5 +10.8 84 +12 +12 1007.6 981.3
09 15.06 СЗ 1 20 км {ливн. осадки} 9/3 600 м
[Sc diur, vesp Ac trans Cc]
+15.4 +8.9 65 +16 +17 1008.8 982.7
12 15.06 СВ 1 20 км {ливн. осадки} 9/3 600 м
[Sc diur, vesp Ac lent Cc]
+16.5 +9.0 61 +17 +19 1006.9 981.0 +18.5 0.0
15 15.06 С 1 20 км 10/3 600 м
[Sc diur, vesp Ac trans Ci fib]
+14.4 +10.8 79 +15 +15 1008.9 982.7
18 15.06 СВ 1 20 км 10/3 600 м
[Sc diur, vesp Ac trans Ci sp]
+13.6 +10.8 83 +14 +14 1007.5 981.3
21 15.06 СВ 2 10 км слаб. ливневой дождь 10/5 600 м
[Cb cap Ac und]
+13.0 +11.7 92 +12 +12 1006.3 980.0
00 16.06 В 1 20 км {ливн. осадки} 10/4 600 м
[Cb cap Ac trans Ci fib]
+13.6 +11.7 88 +14 +15 1003.4 977.3 +12.5 2
03 16.06 ЮЗ 2 20 км в посл. час ливневой дождь 10/6 600 м
[Cb cap Ac trans Ci fib]
+16.7 +13.6 82 +17 +17 1003.1 977.3
06 16.06 Ю 2 20 км {ливн. осадки} 8/4 600 м
[Sc diur, vesp Ci fib]
+21.4 +15.7 70 +25 +29 комфорт 1001.4 976.0
09 16.06 З 3 20 км 6/3 600 м
[Sc diur, vesp Ci fib]
+23.3 +14.8 59 +27 +31 душно 1001.2 976.0
12 16.06 ЮЗ 3 4000 м слаб. ливневой дождь 10/10 540 м
[Cb cap]
+21.1 +16.4 75 +25 +25 комфорт 1000.5 975.2 +24.9 1
15 16.06 штиль 0 10 км слаб. ливневой дождь {гроза} 10/8 540 м
[Cb cap Ac trans Ci fib]
+15.5 +14.3 93 +15 +15 1003.4 977.5
18 16.06 ЮЗ 2 20 км {гроза, ливн. осадки} 10/4 600 м
[Cb cap Ac trans Ci sp]
+15.2 +11.6 79 +15 +15 1004.7 978.7
21 16.06 ЮЗ 4-10
{10}
10 км слаб. ливневой дождь 10/6 300 м
[Cb cap Ac und]
+13.7 +7.4 66 +12 +12 1005.6 979.4
00 17.06 ЮЗ 4
{10}
20 км {ливн. осадки} 10/8 540 м
[Cb cap Ac und]
+11.6 +7.2 74 +9 +10 1007.0 980.6 +11.6 7
03 17.06 ЮЗ 6-10
{11}
20 км 10/10 500 м
[Cb cap]
+11.1 +8.9 86 +8 +8 1008.3 981.8
06 17.06 З 6
{10}
20 км {ливн. осадки} 10/10 300 м
[Cb cap]
+12.5 +7.8 73 +10 +10 1011.8 985.3
09 17.06 ЮЗ 4
{10}
20 км {ливн. осадки} 4/4 600 м
[Sc diur, vesp]
+16.7 +6.8 52 +16 +21 1011.4 985.3
12 17.06 ЮЗ 2
{11}
20 км в посл. час ливневой дождь 8/3 600 м
[Cb cap Ac trans Cc]
+13.5 +9.2 75 +13 +14 1012.0 985.7 +18.0 0.3
15 17.06 Ю 2 20 км 4 балла +12.2 +7.1 71 +11 +11 1014.6 988.0
18 17.06 Ю 2 20 км ясно +9.1 +6.2 82 +7 +7 1014.9 988.0
21 17.06 Ю 2 20 км 2 балла +7.8 +5.4 85 +6 +6 1013.7 986.7
00 18.06 ЮВ 1 20 км 8/0
[Ci fib]
+11.1 +7.1 76 +11 +13 1012.4 985.8 +7.4
03 18.06 ЮВ 3 20 км 7 баллов +18.2 +6.1 45 +18 +21 1011.3 985.3
06 18.06 ЮВ 4 20 км 2 балла +20.8 +4.8 35 +22 +30 комфорт 1008.4 982.7
09 18.06 ЮВ 4 20 км 9 баллов +23.2 +5.1 31 +23 +24 комфорт 1006.7 981.3
12 18.06 ЮВ 3 20 км 10/3 600 м
[Sc diur, vesp Ac trans Ci sp]
+23.0 +7.3 36 +24 +25 комфорт 1003.8 978.5 +23.7
15 18.06 ЮВ 3 20 км 10 баллов +20.0 +7.0 43 +21 +21 комфорт 1004.3 978.7
18 18.06 ЮЗ 2 20 км 10 баллов +17.5 +8.9 57 +18 +18 1003.1 977.3
21 18.06 Ю 2 20 км в посл. час ливневой дождь 10/8 600 м
[Cb cap Cs]
+15.0 +11.7 81 +15 +15 1001.8 975.9
00 19.06 ЮЗ 4 20 км {ливн. осадки} 8/5 600 м
[Cb cap Ac trans]
+15.9 +12.1 78 +15 +16 1003.4 977.6 +14.8 0.5
03 19.06 ЮЗ 6-11
{12}
20 км 8/6 600 м
[Cb cap Ac trans]
+17.3 +8.2 55 +17 +18 1005.9 980.0
06 19.06 З 6-11
{16}
20 км 8/5 300 м
[Cb cap Ac trans]
+18.1 +7.2 49 +18 +20 1007.2 981.3
09 19.06 ЮЗ 5
{15}
20 км {ливн. осадки} 8/5 600 м
[Cb cap Ac trans]
+17.9 +7.9 52 +18 +19 1009.9 984.0
12 19.06 ЮЗ 4
{11}
20 км {ливн. осадки} 6/3 600 м
[Sc diur, vesp Ac trans Cc]
+17.9 +7.1 49 +18 +19 1011.3 985.4 +19.8 0.0
15 19.06 ЮЗ 2 20 км 4 балла +13.9 +5.8 58 +14 +14 1014.4 988.0
18 19.06 Ю 2 20 км 2 балла +9.7 +6.1 78 +8 +8 1016.2 989.3
21 19.06 Ю 1 20 км 4 балла +7.9 +5.5 85 +7 +7 1016.3 989.3

 

Местоположение метеостанции Тяжин (Кемеровская область, Россия): широта 56.12 долгота 88.52 высота над уровнем моря 223 м.

В архиве по умолчанию представлена погода в Тяжине за последнюю неделю. Архивные данные за месяц целиком и за предыдущие месяцы, начиная с января 2011 года, Вы можете получить, выбрав интересующий диапазон дат из раскрывающегося списка и нажав кнопку "Ввод!".


*Определитесь, кто Вы:
робот инопланетянин человек

Внимание! Время в таблицах - всемирное. Для получения местного времени необходимо прибавить поправку, которая равна 7 ч.

Смотрите также архив погоды в соседних городах и на ближайших метеорологических станциях:

Погода в Тисуле (Кемеровская область, Россия) (43 км)
Погода в Мариинске (Кемеровская область, Россия) (52 км)
Погода в Боготоле (Красноярский край, Россия) (67 км)
Погода в Тюхтете (Красноярский край, Россия) (67 км)
Погода в Шарыпово (Красноярский край, Россия) (78 км)
Погода в Назарово (Красноярский край, Россия) (112 км)
Погода в Центральном Руднике (Кемеровская область, Россия) (116 км)
Погода в Ужуре (Красноярский край, Россия) (122 км)
Погода в Ачинске (Красноярский край, Россия) (125 км)
Погода в Яе (Кемеровская область, Россия) (127 км)

Пояснения к столбцам:

Ветер - указаны скорость ветра в м/с - средняя за 10 мин, порывы в срок и между сроками (в фигурных скобках) и направление, откуда дует ветер: С - северный, СВ - северо-восточный, В - восточный, ЮВ - юго-восточный, Ю - южный, ЮЗ - юго-западный, З - западный, СЗ - северо-западный.
Видимость - горизонтальная дальность видимости в метрах или километрах. При видимости от 1 до 10 км при отсутствии осадков обычно наблюдается дымка, при ухудшении видимости до 1 км и менее - туман. В сухую погоду видимость может ухудшаться дымом, пылью или мглою.
Явления - указаны атмосферные явления, наблюдавшиеся в срок или в последний час перед сроком; фигурными скобками обозначены явления, наблюдавшиеся между сроками (за 1-3 часа до срока); квадратными скобками обозначены град или гололедные отложения с указанием их диаметра в мм.
Облачность - указаны через наклонную черту общая и нижняя облачность в баллах и высота нижней границы облаков в метрах; квадратными скобками обозначены формы облаков: Ci - перистые, Cs - перисто-слоистые, Cc - перисто-кучевые, Ac - высококучевые, As - высокослоистые, Sc - слоисто-кучевые, Ns - слоисто-дождевые, Cu - кучевые, Cb - кучево-дождевые. Подробнее классификацию облаков см. в Атласе облаков (PDF).
T - Температура воздуха - температура, измеренная на высоте 2 м над землей.
Td - Температура точки росы - температура, при понижении до которой содержащийся в воздухе водяной пар достигнет насыщения.
f - Относительная влажность воздуха - влажноcть воздуха, измеренная на высоте 2 м над землей.
Te - Эффективная температура - температура, которую ощущает одетый по сезону человек в тени. Характеристика душности погоды. При расчете учитывается влияние влажности воздуха и скорости ветра на теплоощущения человека.
Tes - Эффективная температура на солнце - температура, которую ощущает человек, с поправкой на солнечный нагрев. Характеристика знойности погоды. Зависит от высоты солнца над горизонтом, облачности и скорости ветра. Ночью, в пасмурную погоду, а также при ветре 12 м/с и более поправка равна нулю.
P - Атмосферное давление - приведенное к уровню моря атмосферное давление.
Po - Атмосферное давление - измеренное на уровне метеостанции атмосферное давление.
Tmin - Минимальная температура - минимум температуры воздуха на высоте 2 м над землей.
Tmax - Максимальная температура - максимум температуры воздуха на высоте 2 м над землей.
R - Количество осадков - Количество выпавших осадков за период времени, мм. При наведении курсора мыши на число - период времени, за который выпало указанное количество осадков.
R24 - Количество осадков - Количество выпавших осадков за 24 часа, мм.
S - Снежный покров - Высота снежного покрова, см. При наведении курсора мыши на число - состояние снежного покрова и степень покрытия местности в баллах.